When you browse on this site, cookies collect data to enhance your experience and personalize the content and advertising you see.
Visit our Privacy Policy to learn more. By continuing to use the site, you agree to this use of cookies and data.
  • In Sweden
  • List of Countries
  • For 7 days
  • Water Temperature
  • Weather Map
  • Weather Widgets
  • user-avatar
    Login

    Hourly Weather Lesniki

    Today, 18 October, Friday

    Time Temperature Precipitation Wind Pressure Humidity
    00:00 +12°C° 0 mm 2 mps 750 mmHg 74%
    01:00 +10°C° 0 mm 2 mps 750 mmHg 74%
    02:00 +10°C° 0 mm 2 mps 750 mmHg 74%
    03:00 +10°C° 0 mm 2 mps 750 mmHg 75%
    04:00 +10°C° 0 mm 2 mps 750 mmHg 76%
    05:00 +9°C° 0 mm 2 mps 750 mmHg 77%
    06:00 +10°C° 0 mm 2 mps 750 mmHg 76%
    07:00 +10°C° 0 mm 2 mps 750 mmHg 76%
    08:00 +10°C° 0 mm 2 mps 750 mmHg 75%
    09:00 +12°C° 0 mm 3 mps 750 mmHg 71%
    10:00 +13°C° 0 mm 3 mps 750 mmHg 66%
    11:00 +16°C° 0 mm 3 mps 750 mmHg 62%
    12:00 +17°C° 0 mm 3 mps 749 mmHg 62%
    13:00 +18°C° 0 mm 3 mps 749 mmHg 62%
    14:00 +19°C° 0 mm 3 mps 749 mmHg 62%
    15:00 +18°C° 0 mm 3 mps 749 mmHg 67%
    16:00 +17°C° 0 mm 2 mps 748 mmHg 71%
    17:00 +16°C° 0 mm 2 mps 748 mmHg 76%
    18:00 +16°C° 0 mm 2 mps 748 mmHg 79%
    19:00 +15°C° 0 mm 2 mps 748 mmHg 82%
    20:00 +14°C° 0 mm 2 mps 748 mmHg 85%
    21:00 +14°C° 0 mm 2 mps 748 mmHg 85%
    22:00 +14°C° 0 mm 2 mps 748 mmHg 84%
    23:00 +14°C° 0 mm 2 mps 748 mmHg 84%

    Tomorrow, 19 October, Saturday

    Time Temperature Precipitation Wind Pressure Humidity
    00:00 +14°C° 0 mm 2 mps 748 mmHg 85%
    01:00 +13°C° 0 mm 2 mps 748 mmHg 86%
    02:00 +13°C° 0 mm 2 mps 748 mmHg 87%
    03:00 +13°C° 0 mm 2 mps 748 mmHg 87%
    04:00 +13°C° 0 mm 2 mps 748 mmHg 88%
    05:00 +12°C° 0 mm 2 mps 748 mmHg 89%
    06:00 +12°C° 0 mm 2 mps 748 mmHg 88%
    07:00 +13°C° 0 mm 2 mps 748 mmHg 88%
    08:00 +13°C° 0 mm 2 mps 748 mmHg 87%
    09:00 +14°C° 0 mm 2 mps 748 mmHg 80%
    10:00 +16°C° 0 mm 2 mps 748 mmHg 74%
    11:00 +18°C° 0 mm 3 mps 748 mmHg 68%
    12:00 +18°C° 0 mm 3 mps 748 mmHg 65%
    13:00 +19°C° 0 mm 3 mps 748 mmHg 62%
    14:00 +20°C° 0 mm 3 mps 748 mmHg 59%
    15:00 +19°C° 0 mm 3 mps 748 mmHg 63%
    16:00 +18°C° 0 mm 2 mps 747 mmHg 67%
    17:00 +18°C° 0 mm 1 mps 747 mmHg 72%
    18:00 +18°C° 0 mm 1 mps 748 mmHg 73%
    19:00 +16°C° 0 mm 2 mps 748 mmHg 74%
    20:00 +16°C° 0 mm 2 mps 748 mmHg 75%
    21:00 +16°C° 0 mm 2 mps 748 mmHg 76%
    22:00 +16°C° 0 mm 2 mps 748 mmHg 76%
    23:00 +16°C° 0 mm 3 mps 748 mmHg 77%

    Day after tomorrow, 20 October, Sunday

    Time Temperature Precipitation Wind Pressure Humidity
    00:00 +14°C° 0 mm 3 mps 748 mmHg 78%
    01:00 +14°C° 0 mm 3 mps 748 mmHg 79%
    02:00 +13°C° 0 mm 3 mps 748 mmHg 80%
    03:00 +13°C° 0 mm 3 mps 748 mmHg 81%
    04:00 +12°C° 0 mm 3 mps 748 mmHg 82%
    05:00 +12°C° 0 mm 3 mps 748 mmHg 83%
    06:00 +12°C° 0 mm 3 mps 748 mmHg 82%
    07:00 +13°C° 0 mm 2 mps 748 mmHg 81%
    08:00 +14°C° 0 mm 2 mps 748 mmHg 80%
    09:00 +15°C° 0 mm 2 mps 748 mmHg 74%
    10:00 +17°C° 0 mm 3 mps 748 mmHg 69%
    11:00 +18°C° 0 mm 3 mps 749 mmHg 63%
    12:00 +19°C° 0 mm 3 mps 749 mmHg 60%
    13:00 +20°C° 0 mm 3 mps 749 mmHg 58%
    14:00 +21°C° 0 mm 3 mps 749 mmHg 55%
    15:00 +20°C° 0 mm 2 mps 748 mmHg 60%
    16:00 +19°C° 0 mm 2 mps 748 mmHg 64%
    17:00 +19°C° 0 mm 1 mps 748 mmHg 69%
    18:00 +17°C° 0 mm 2 mps 748 mmHg 71%
    19:00 +16°C° 0 mm 2 mps 749 mmHg 74%
    20:00 +16°C° 0 mm 2 mps 749 mmHg 77%
    21:00 +15°C° 0 mm 2 mps 749 mmHg 78%
    22:00 +15°C° 0 mm 2 mps 749 mmHg 80%
    23:00 +14°C° 0 mm 3 mps 749 mmHg 82%

    21 October, Monday

    Time Temperature Precipitation Wind Pressure Humidity
    00:00 +13°C° 0 mm 3 mps 748 mmHg 82%
    01:00 +13°C° 0 mm 3 mps 748 mmHg 82%
    02:00 +13°C° 0 mm 3 mps 748 mmHg 83%
    03:00 +13°C° 0 mm 3 mps 748 mmHg 81%
    04:00 +13°C° 0 mm 3 mps 748 mmHg 80%
    05:00 +12°C° 0 mm 3 mps 748 mmHg 79%
    06:00 +13°C° 0 mm 3 mps 748 mmHg 79%
    07:00 +13°C° 0 mm 3 mps 748 mmHg 78%
    08:00 +13°C° 0 mm 3 mps 748 mmHg 78%
    09:00 +15°C° 0 mm 4 mps 748 mmHg 71%
    10:00 +17°C° 0 mm 4 mps 748 mmHg 64%
    11:00 +19°C° 0 mm 4 mps 748 mmHg 58%
    12:00 +20°C° 0 mm 4 mps 748 mmHg 57%
    13:00 +20°C° 0 mm 4 mps 748 mmHg 56%
    14:00 +21°C° 0 mm 3 mps 748 mmHg 55%
    15:00 +20°C° 0 mm 3 mps 748 mmHg 60%
    16:00 +18°C° 0 mm 3 mps 748 mmHg 65%
    17:00 +17°C° 0 mm 2 mps 748 mmHg 70%
    18:00 +17°C° 0 mm 2 mps 748 mmHg 72%
    19:00 +16°C° 0 mm 3 mps 748 mmHg 74%
    20:00 +14°C° 0 mm 3 mps 748 mmHg 77%
    21:00 +14°C° 0 mm 3 mps 749 mmHg 80%
    22:00 +14°C° 0 mm 3 mps 749 mmHg 84%
    23:00 +13°C° 0 mm 3 mps 749 mmHg 88%

    22 October, Tuesday

    Time Temperature Precipitation Wind Pressure Humidity
    00:00 +13°C° 0 mm 4 mps 750 mmHg 89%
    01:00 +12°C° 0 mm 4 mps 750 mmHg 90%
    02:00 +12°C° 0 mm 4 mps 751 mmHg 91%
    03:00 +11°C° 0 mm 4 mps 752 mmHg 92%
    04:00 +10°C° 0 mm 4 mps 752 mmHg 92%
    05:00 +9°C° 0 mm 3 mps 752 mmHg 92%
    06:00 +9°C° 0 mm 3 mps 753 mmHg 92%
    07:00 +9°C° 0 mm 3 mps 754 mmHg 92%
    08:00 +9°C° 0 mm 3 mps 754 mmHg 92%
    09:00 +10°C° 0 mm 2 mps 755 mmHg 84%
    10:00 +13°C° 0 mm 2 mps 755 mmHg 75%
    11:00 +14°C° 0 mm 2 mps 755 mmHg 67%
    12:00 +15°C° 0 mm 2 mps 755 mmHg 63%
    13:00 +14°C° 0 mm 3 mps 755 mmHg 60%
    14:00 +16°C° 0 mm 3 mps 755 mmHg 57%
    15:00 +14°C° 0 mm 3 mps 755 mmHg 61%
    16:00 +14°C° 0 mm 2 mps 755 mmHg 65%
    17:00 +14°C° 0 mm 2 mps 755 mmHg 68%
    18:00 +13°C° 0 mm 2 mps 755 mmHg 72%
    19:00 +12°C° 0 mm 2 mps 756 mmHg 75%
    20:00 +10°C° 0 mm 2 mps 756 mmHg 78%
    21:00 +11°C° 0 mm 1 mps 756 mmHg 80%
    22:00 +10°C° 0 mm 1 mps 756 mmHg 83%
    23:00 +10°C° 0 mm 1 mps 756 mmHg 85%

    23 October, Wednesday

    Time Temperature Precipitation Wind Pressure Humidity
    00:00 +9°C° 0 mm 1 mps 756 mmHg 86%
    01:00 +9°C° 0 mm 1 mps 757 mmHg 87%
    02:00 +9°C° 0 mm 1 mps 757 mmHg 88%
    03:00 +8°C° 0 mm 1 mps 757 mmHg 88%
    04:00 +8°C° 0 mm 1 mps 757 mmHg 88%
    05:00 +8°C° 0 mm 1 mps 757 mmHg 89%
    06:00 +8°C° 0 mm 1 mps 757 mmHg 88%
    07:00 +8°C° 0 mm 1 mps 757 mmHg 87%
    08:00 +8°C° 0 mm 1 mps 757 mmHg 86%
    09:00 +10°C° 0 mm 1 mps 757 mmHg 80%
    10:00 +12°C° 0 mm 1 mps 756 mmHg 73%
    11:00 +13°C° 0 mm 2 mps 756 mmHg 66%
    12:00 +14°C° 0 mm 2 mps 756 mmHg 64%
    13:00 +15°C° 0 mm 2 mps 756 mmHg 61%
    14:00 +15°C° 0 mm 2 mps 756 mmHg 59%
    15:00 +14°C° 0 mm 2 mps 756 mmHg 63%
    16:00 +13°C° 0 mm 2 mps 755 mmHg 67%
    17:00 +12°C° 0 mm 2 mps 755 mmHg 72%
    18:00 +12°C° 0 mm 2 mps 755 mmHg 74%
    19:00 +10°C° 0 mm 2 mps 755 mmHg 77%
    20:00 +9°C° 0 mm 2 mps 755 mmHg 80%
    21:00 +9°C° 0 mm 2 mps 755 mmHg 80%
    22:00 +8°C° 0 mm 2 mps 755 mmHg 81%
    23:00 +8°C° 0 mm 3 mps 755 mmHg 82%
    Show more